Overview Statistics Trail Chart Weather Telemetry Raw packets
 

This is the latest recevied weather packets stored in our database for station/object W7BTL. If no packets are shown the sender has not sent any weather packets the latest 10 day(s).

<< 22 23 24 25 26 27 28 >>
Time Temp. Humidity Pressure Rain* Wind** Luminosity Snow
1788507124 18.33° C 91% 1012.1 hPa 0 mm - 0 W/m² -
1788506820 18.33° C 90% 1012.1 hPa 0 mm - 0 W/m² -
1788506520 18.33° C 90% 1012.1 hPa 0 mm - 0 W/m² -
1788506216 18.33° C 90% 1012.2 hPa 0 mm - 0 W/m² -
1788505911 17.78° C 90% 1012.1 hPa 0 mm - 0 W/m² -
1788505610 18.33° C 89% 1012 hPa 0 mm - 0 W/m² -
1788505309 18.33° C 90% 1012 hPa 0 mm - 0 W/m² -
1788505004 18.33° C 89% 1012.1 hPa 0 mm - 0 W/m² -
1788504702 18.33° C 89% 1012 hPa 0 mm - 0 W/m² -
1788504396 18.33° C 89% 1012.1 hPa 0 mm - 0 W/m² -
1788504097 18.33° C 88% 1012.1 hPa 0 mm - 0 W/m² -
1788503792 18.33° C 87% 1012 hPa 0 mm - 0 W/m² -
1788503488 18.89° C 86% 1012 hPa 0 mm - 0 W/m² -
1788503184 18.89° C 86% 1012.2 hPa 0 mm - 0 W/m² -
1788502879 18.89° C 84% 1012.2 hPa 0 mm - 0 W/m² -
1788502575 18.89° C 84% 1011.9 hPa 0 mm - 0 W/m² -
1788502271 19.44° C 84% 1012.1 hPa 0 mm - 0 W/m² -
1788501968 19.44° C 83% 1011.9 hPa 0 mm - 0 W/m² -
1788501664 19.44° C 83% 1012.1 hPa 0 mm - 0 W/m² -
1788501364 20° C 82% 1011.8 hPa 0 mm - 0 W/m² -
1788501059 20° C 82% 1011.9 hPa 0 mm - 0 W/m² -
1788500755 20° C 82% 1012 hPa 0 mm - 0 W/m² -
1788500451 20° C 81% 1012 hPa 0 mm - 0 W/m² -
1788500150 20° C 81% 1012 hPa 0 mm - 0 W/m² -
1788499845 20° C 81% 1012 hPa 0 mm - 0 W/m² -

* Rain latest hour (hover to see other rain measurements)
** Current wind speed in m/s (hover to see current wind gust speed)